Location: St. Louis
(38.6270°N, 90.1994°W)
Time: 13:47:58
(UTC-06:00)

Vanguard 1 - Pass Details

Date: 07 December 2021
Orbit: 652 x 3830 km, 34.2° (Epoch: 19 January)

Event Time Altitude Azimuth Distance (km) Brightness Sun altitude
Rises 23:45:41 0° 247° (WSW) 6,900 14.3 -73.9°
Enters shadow 23:46:39 - 247° (WSW) 6,725 14.3 -74.0°
Reaches altitude 10° 23:49:45 10° 246° (WSW) 6,181 - -74.0°
Maximum altitude 00:11:28 74° 166° (SSE) 3,930 - -73.5°
Exits shadow 00:27:42 25° 90° (E) 5,304 13.6 -72.3°
Drops below altitude 10° 00:33:11 10° 87° (E) 6,182 14.2 -71.8°
Sets 00:37:15 0° 86° (E) 6,901 14.5 -71.3°
